Time,TemperatureF,DewpointF,PressureIn,WindDirection,WindDirectionDegrees,WindSpeedMPH,WindSpeedGustMPH,Humidity,HourlyPrecipIn,Conditions,Clouds,dailyrainin,SolarRadiationWatts/m^2,SoftwareType,DateUTC
2013-02-15 00:10:00,24.8,22.0,30.05,NNW,339,8.0,13.0,87,0.00,,,0.00,0,weatherlink.com 1.10,2013-02-15 06:10:00,
2013-02-15 00:25:00,24.4,21.0,30.07,North,355,8.0,10.0,86,0.00,,,0.00,0,weatherlink.com 1.10,2013-02-15 06:25:00,
2013-02-15 00:40:00,23.9,20.0,30.07,NNW,331,9.0,14.0,83,0.00,,,0.00,0,weatherlink.com 1.10,2013-02-15 06:40:00,
2013-02-15 00:55:00,23.1,17.0,30.08,NW,313,5.0,16.0,77,0.00,,,0.00,0,weatherlink.com 1.10,2013-02-15 06:55:00,
2013-02-15 01:10:00,21.6,15.0,30.08,NW,319,8.0,14.0,77,0.00,,,0.00,0,weatherlink.com 1.10,2013-02-15 07:10:00,
2013-02-15 01:25:00,20.6,15.0,30.09,NNW,327,8.0,10.0,79,0.00,,,0.00,0,weatherlink.com 1.10,2013-02-15 07:25:00,
2013-02-15 01:40:00,20.2,16.0,30.09,NNW,336,10.0,13.0,83,0.00,,,0.00,0,weatherlink.com 1.10,2013-02-15 07:40:00,
2013-02-15 01:55:00,20.0,15.0,30.10,NNW,342,8.0,11.0,81,0.00,,,0.00,0,weatherlink.com 1.10,2013-02-15 07:55:00,
2013-02-15 02:10:00,19.3,14.0,30.11,NNW,347,8.0,10.0,80,0.00,,,0.00,0,weatherlink.com 1.10,2013-02-15 08:10:00,
2013-02-15 02:25:00,18.4,13.0,30.11,NNW,331,7.0,7.0,78,0.00,,,0.00,0,weatherlink.com 1.10,2013-02-15 08:25:00,
2013-02-15 02:40:00,17.9,12.0,30.12,NNW,330,7.0,10.0,77,0.00,,,0.00,0,weatherlink.com 1.10,2013-02-15 08:40:00,
2013-02-15 02:55:00,17.4,11.0,30.12,NW,313,5.0,8.0,77,0.00,,,0.00,0,weatherlink.com 1.10,2013-02-15 08:55:00,
2013-02-15 03:10:00,16.9,11.0,30.12,NW,306,5.0,8.0,77,0.00,,,0.00,0,weatherlink.com 1.10,2013-02-15 09:10:00,
2013-02-15 03:25:00,15.9,10.0,30.13,WNW,291,3.0,6.0,78,0.00,,,0.00,0,weatherlink.com 1.10,2013-02-15 09:25:00,
2013-02-15 03:40:00,15.0,10.0,30.13,NW,307,5.0,7.0,79,0.00,,,0.00,0,weatherlink.com 1.10,2013-02-15 09:40:00,
2013-02-15 03:55:00,14.5,9.0,30.13,WNW,282,4.0,8.0,80,0.00,,,0.00,0,weatherlink.com 1.10,2013-02-15 09:55:00,
2013-02-15 04:10:00,13.9,9.0,30.14,WNW,296,6.0,7.0,81,0.00,,,0.00,0,weatherlink.com 1.10,2013-02-15 10:10:00,
2013-02-15 04:26:00,13.5,9.0,30.15,NW,304,6.0,9.0,81,0.00,,,0.00,0,weatherlink.com 1.10,2013-02-15 10:26:00,
2013-02-15 04:41:00,13.6,9.0,30.16,West,280,3.0,9.0,82,0.00,,,0.00,0,weatherlink.com 1.10,2013-02-15 10:41:00,
2013-02-15 04:56:00,13.4,9.0,30.16,WNW,283,6.0,9.0,82,0.00,,,0.00,0,weatherlink.com 1.10,2013-02-15 10:56:00,
2013-02-15 05:11:00,13.2,9.0,30.16,West,281,6.0,9.0,82,0.00,,,0.00,0,weatherlink.com 1.10,2013-02-15 11:11:00,
2013-02-15 05:26:00,13.0,9.0,30.17,WNW,292,5.0,9.0,83,0.00,,,0.00,0,weatherlink.com 1.10,2013-02-15 11:26:00,
2013-02-15 05:41:00,12.9,8.0,30.18,WNW,293,4.0,9.0,82,0.00,,,0.00,0,weatherlink.com 1.10,2013-02-15 11:41:00,
2013-02-15 05:56:00,12.4,8.0,30.19,West,279,6.0,9.0,83,0.00,,,0.00,0,weatherlink.com 1.10,2013-02-15 11:56:00,
2013-02-15 06:11:00,12.4,8.0,30.19,WNW,288,4.0,10.0,83,0.00,,,0.00,0,weatherlink.com 1.10,2013-02-15 12:11:00,
2013-02-15 06:26:00,12.1,8.0,30.19,WNW,284,8.0,12.0,83,0.00,,,0.00,0,weatherlink.com 1.10,2013-02-15 12:26:00,
2013-02-15 06:41:00,12.1,8.0,30.19,WNW,299,8.0,9.0,83,0.00,,,0.00,0,weatherlink.com 1.10,2013-02-15 12:41:00,
2013-02-15 06:56:00,11.8,8.0,30.20,WNW,296,5.0,9.0,83,0.00,,,0.00,5,weatherlink.com 1.10,2013-02-15 12:56:00,
2013-02-15 07:11:00,11.6,7.0,30.20,West,271,6.0,10.0,83,0.00,,,0.00,12,weatherlink.com 1.10,2013-02-15 13:11:00,
2013-02-15 07:26:00,11.5,7.0,30.20,West,275,6.0,7.0,83,0.00,,,0.00,18,weatherlink.com 1.10,2013-02-15 13:26:00,
2013-02-15 07:41:00,11.6,7.0,30.21,WNW,286,7.0,9.0,83,0.00,,,0.00,23,weatherlink.com 1.10,2013-02-15 13:41:00,
2013-02-15 07:56:00,11.8,7.0,30.22,WNW,292,7.0,9.0,82,0.00,,,0.00,28,weatherlink.com 1.10,2013-02-15 13:56:00,
2013-02-15 08:11:00,12.2,8.0,30.23,West,271,6.0,10.0,82,0.00,,,0.00,32,weatherlink.com 1.10,2013-02-15 14:11:00,
2013-02-15 08:26:00,12.5,8.0,30.23,WNW,282,8.0,10.0,81,0.00,,,0.00,35,weatherlink.com 1.10,2013-02-15 14:26:00,
2013-02-15 08:41:00,12.7,8.0,30.24,West,273,7.0,11.0,81,0.00,,,0.00,37,weatherlink.com 1.10,2013-02-15 14:41:00,
2013-02-15 08:56:00,12.9,8.0,30.24,WNW,296,6.0,10.0,80,0.00,,,0.00,47,weatherlink.com 1.10,2013-02-15 14:56:00,
2013-02-15 09:11:00,13.4,8.0,30.24,WNW,295,6.0,9.0,80,0.00,,,0.00,63,weatherlink.com 1.10,2013-02-15 15:11:00,
2013-02-15 09:26:00,14.0,9.0,30.24,WNW,300,5.0,9.0,80,0.00,,,0.00,72,weatherlink.com 1.10,2013-02-15 15:26:00,
2013-02-15 09:41:00,14.8,9.0,30.24,WNW,288,5.0,10.0,79,0.00,,,0.00,100,weatherlink.com 1.10,2013-02-15 15:41:00,
2013-02-15 09:57:00,15.8,10.0,30.24,WNW,292,5.0,8.0,79,0.00,,,0.00,190,weatherlink.com 1.10,2013-02-15 15:57:00,
2013-02-15 10:12:00,16.5,11.0,30.24,West,272,8.0,9.0,77,0.00,,,0.00,327,weatherlink.com 1.10,2013-02-15 16:12:00,
2013-02-15 10:27:00,16.7,11.0,30.25,WNW,298,6.0,8.0,77,0.00,,,0.00,111,weatherlink.com 1.10,2013-02-15 16:27:00,
2013-02-15 10:42:00,16.8,11.0,30.24,WNW,293,4.0,8.0,77,0.00,,,0.00,86,weatherlink.com 1.10,2013-02-15 16:42:00,
2013-02-15 10:57:00,17.0,11.0,30.24,West,275,6.0,9.0,78,0.00,,,0.00,181,weatherlink.com 1.10,2013-02-15 16:57:00,
2013-02-15 11:12:00,17.6,11.0,30.24,West,264,6.0,8.0,76,0.00,,,0.00,63,weatherlink.com 1.10,2013-02-15 17:12:00,
2013-02-15 11:27:00,17.9,12.0,30.24,WSW,256,8.0,10.0,77,0.00,,,0.00,74,weatherlink.com 1.10,2013-02-15 17:27:00,
2013-02-15 11:42:00,18.3,12.0,30.23,West,270,7.0,12.0,77,0.00,,,0.00,56,weatherlink.com 1.10,2013-02-15 17:42:00,
2013-02-15 11:57:00,18.8,12.0,30.23,WSW,257,7.0,13.0,76,0.00,,,0.00,295,weatherlink.com 1.10,2013-02-15 17:57:00,
2013-02-15 12:12:00,19.5,13.0,30.23,WNW,291,8.0,11.0,76,0.00,,,0.00,230,weatherlink.com 1.10,2013-02-15 18:12:00,
2013-02-15 12:27:00,20.0,13.0,30.23,WNW,292,9.0,13.0,73,0.00,,,0.00,95,weatherlink.com 1.10,2013-02-15 18:27:00,
2013-02-15 12:42:00,20.4,13.0,30.22,WNW,286,9.0,12.0,73,0.00,,,0.00,209,weatherlink.com 1.10,2013-02-15 18:42:00,
2013-02-15 12:57:00,20.7,13.0,30.22,West,261,9.0,11.0,72,0.00,,,0.00,156,weatherlink.com 1.10,2013-02-15 18:57:00,
2013-02-15 13:12:00,21.2,14.0,30.22,West,264,5.0,11.0,73,0.00,,,0.00,171,weatherlink.com 1.10,2013-02-15 19:12:00,
2013-02-15 13:27:00,21.6,13.0,30.22,WNW,302,7.0,11.0,68,0.00,,,0.00,524,weatherlink.com 1.10,2013-02-15 19:27:00,
2013-02-15 13:42:00,21.7,12.0,30.21,West,273,9.0,12.0,67,0.00,,,0.00,563,weatherlink.com 1.10,2013-02-15 19:42:00,
2013-02-15 13:57:00,22.0,12.0,30.21,West,275,6.0,11.0,66,0.00,,,0.00,541,weatherlink.com 1.10,2013-02-15 19:57:00,
2013-02-15 14:12:00,22.1,11.0,30.21,West,271,11.0,12.0,63,0.00,,,0.00,517,weatherlink.com 1.10,2013-02-15 20:12:00,
2013-02-15 14:27:00,21.9,11.0,30.21,West,262,9.0,12.0,63,0.00,,,0.00,60,weatherlink.com 1.10,2013-02-15 20:27:00,
2013-02-15 14:42:00,22.0,11.0,30.21,West,266,5.0,10.0,64,0.00,,,0.00,58,weatherlink.com 1.10,2013-02-15 20:42:00,
2013-02-15 14:57:00,22.2,11.0,30.21,West,280,5.0,10.0,61,0.00,,,0.00,91,weatherlink.com 1.10,2013-02-15 20:57:00,
2013-02-15 15:12:00,22.2,11.0,30.21,WNW,300,7.0,9.0,62,0.00,,,0.00,51,weatherlink.com 1.10,2013-02-15 21:12:00,
2013-02-15 15:27:00,22.2,12.0,30.21,WSW,257,6.0,8.0,65,0.00,,,0.00,54,weatherlink.com 1.10,2013-02-15 21:27:00,
2013-02-15 15:42:00,22.4,10.0,30.22,West,274,7.0,9.0,60,0.00,,,0.00,250,weatherlink.com 1.10,2013-02-15 21:42:00,
2013-02-15 15:57:00,22.4,11.0,30.22,West,277,4.0,9.0,61,0.00,,,0.00,128,weatherlink.com 1.10,2013-02-15 21:57:00,
2013-02-15 16:11:00,21.8,10.0,30.22,WNW,296,5.0,9.0,61,0.00,,,0.00,40,weatherlink.com 1.10,2013-02-15 22:11:00,
2013-02-15 16:26:00,21.4,10.0,30.23,WSW,257,7.0,8.0,61,0.00,,,0.00,95,weatherlink.com 1.10,2013-02-15 22:26:00,
2013-02-15 16:41:00,21.1,10.0,30.23,West,273,5.0,8.0,62,0.00,,,0.00,26,weatherlink.com 1.10,2013-02-15 22:41:00,
2013-02-15 16:56:00,20.6,10.0,30.23,WNW,283,5.0,8.0,64,0.00,,,0.00,42,weatherlink.com 1.10,2013-02-15 22:56:00,
2013-02-15 17:11:00,19.8,10.0,30.23,WNW,282,6.0,7.0,65,0.00,,,0.00,18,weatherlink.com 1.10,2013-02-15 23:11:00,
2013-02-15 17:26:00,19.0,10.0,30.24,West,270,7.0,8.0,67,0.00,,,0.00,5,weatherlink.com 1.10,2013-02-15 23:26:00,
2013-02-15 17:41:00,19.1,10.0,30.24,West,267,6.0,10.0,67,0.00,,,0.00,0,weatherlink.com 1.10,2013-02-15 23:41:00,
2013-02-15 17:57:00,19.0,10.0,30.24,WSW,255,7.0,11.0,69,0.00,,,0.00,0,weatherlink.com 1.10,2013-02-15 23:57:00,
2013-02-15 18:12:00,17.7,9.0,30.25,WNW,288,4.0,7.0,70,0.00,,,0.00,0,weatherlink.com 1.10,2013-02-16 00:12:00,
2013-02-15 18:27:00,17.3,9.0,30.25,West,270,6.0,8.0,70,0.00,,,0.00,0,weatherlink.com 1.10,2013-02-16 00:27:00,
2013-02-15 18:42:00,17.0,9.0,30.25,West,272,5.0,8.0,70,0.00,,,0.00,0,weatherlink.com 1.10,2013-02-16 00:42:00,
2013-02-15 18:57:00,16.7,9.0,30.25,West,275,5.0,10.0,70,0.00,,,0.00,0,weatherlink.com 1.10,2013-02-16 00:57:00,
2013-02-15 19:12:00,16.3,8.0,30.25,West,275,6.0,10.0,71,0.00,,,0.00,0,weatherlink.com 1.10,2013-02-16 01:12:00,
2013-02-15 19:27:00,15.9,8.0,30.25,WNW,291,9.0,10.0,71,0.00,,,0.00,0,weatherlink.com 1.10,2013-02-16 01:27:00,
2013-02-15 19:42:00,16.8,8.0,30.25,West,281,6.0,13.0,69,0.00,,,0.00,0,weatherlink.com 1.10,2013-02-16 01:42:00,
2013-02-15 19:57:00,16.2,8.0,30.26,NW,319,8.0,9.0,71,0.00,,,0.00,0,weatherlink.com 1.10,2013-02-16 01:57:00,
2013-02-15 20:27:00,15.4,8.0,30.26,WNW,302,4.0,9.0,73,0.00,,,0.00,0,weatherlink.com 1.10,2013-02-16 02:27:00,
2013-02-15 20:42:00,15.2,8.0,30.26,NW,321,5.0,7.0,74,0.00,,,0.00,0,weatherlink.com 1.10,2013-02-16 02:42:00,
2013-02-15 20:57:00,14.6,8.0,30.26,WNW,300,4.0,7.0,75,0.00,,,0.00,0,weatherlink.com 1.10,2013-02-16 02:57:00,
2013-02-15 21:12:00,14.4,8.0,30.27,West,279,6.0,9.0,75,0.00,,,0.00,0,weatherlink.com 1.10,2013-02-16 03:12:00,
2013-02-15 21:27:00,13.9,7.0,30.27,WNW,290,10.0,10.0,75,0.00,,,0.00,0,weatherlink.com 1.10,2013-02-16 03:27:00,
2013-02-15 21:42:00,14.0,7.0,30.27,WNW,296,7.0,12.0,75,0.00,,,0.00,0,weatherlink.com 1.10,2013-02-16 03:42:00,
2013-02-15 21:57:00,14.0,7.0,30.27,WNW,283,6.0,12.0,75,0.00,,,0.00,0,weatherlink.com 1.10,2013-02-16 03:57:00,
2013-02-15 22:12:00,13.5,7.0,30.26,WNW,293,10.0,14.0,74,0.00,,,0.00,0,weatherlink.com 1.10,2013-02-16 04:12:00,
2013-02-15 22:27:00,13.2,6.0,30.26,WNW,298,9.0,11.0,74,0.00,,,0.00,0,weatherlink.com 1.10,2013-02-16 04:27:00,
2013-02-15 22:42:00,12.7,6.0,30.26,WNW,301,10.0,12.0,74,0.00,,,0.00,0,weatherlink.com 1.10,2013-02-16 04:42:00,
2013-02-15 22:57:00,12.5,6.0,30.26,WNW,302,7.0,12.0,74,0.00,,,0.00,0,weatherlink.com 1.10,2013-02-16 04:57:00,
2013-02-15 23:12:00,12.1,6.0,30.26,West,271,8.0,12.0,75,0.00,,,0.00,0,weatherlink.com 1.10,2013-02-16 05:12:00,
2013-02-15 23:27:00,12.0,6.0,30.26,NW,308,9.0,13.0,75,0.00,,,0.00,0,weatherlink.com 1.10,2013-02-16 05:27:00,
2013-02-15 23:42:00,11.2,5.0,30.26,WNW,286,8.0,12.0,75,0.00,,,0.00,0,weatherlink.com 1.10,2013-02-16 05:42:00,
2013-02-15 23:57:00,10.5,4.0,30.26,WNW,294,6.0,10.0,76,0.00,,,0.00,0,weatherlink.com 1.10,2013-02-16 05:57:00,